ARIANE 5 R/B, 44477

Orbit data source: Space-Track

ARIANE 5 R/B, 44477 is space debris in HEO originally from a launch on Tue, 06 Aug 2019 UTC launched from the French Guiana (FRGUI). Debris objects in space refer to the collection of defunct objects orbiting the Earth. Examples of debris include non-operational satellites, rocket bodies, and fragments generated from explosions, collisions, or faulty payload assembly.

Loading next visibility...
Identifier
44477, 2019-049C
Orbit
HEO
Country
Flag of FRFR
Related business
Manufacturer
ArianeGroup
Mission
Spacecraft
Bus & Motor
ESC-A, Unknown motor
Mass
~5,000 kg wet, ~5,000 kg dry
Launch date (UTC)
2019-08-06 (6 years ago)
Launch vehicle
Unknown
Launch site
French Guiana (FRGUI)
Object type
Payload
Rocket body
Debris
Shape & HBR
Cyl + 1 Nozzle, 3.5 m
Radar Cross Section
41.627 m², Large (>1 m²)

Expand to show TLE details & history
Last TLE update: 13 hours ago

TLE from 13 hours ago
0 ARIANE 5 R/B
1 44477U 19049C   25311.05121782  .00017963  00000-0  10288-2 0  9994
2 44477   4.5735  35.1840 6752110 242.4911  34.8649  3.01082360 59122
Epoch: 2025-11-07T01:13Z
TLE epoch observation values (Epoch: 2025-11-07T01:13:45.219Z)
Latitude
0.00001°
Longitude
-30.06486°
Altitude
9,587.398 km
Speed
5.5 km/s
True Right ascension
02h 19m 29s
True Declination
0° 00' 00"
Sunlit
Object was in full shadow at epoch
Visualization orbit readout
Latitude
Unknown
Longitude
Unknown
Altitude
Unknown
Speed
Unknown
Apparent Right ascension
Unknown
Apparent Declination
Unknown
Sunlit
N/A
Visualization observer readout
Local Sidereal Time
10:09:10
Azimuth
Unknown
Elevation
Unknown
Doppler factor
Unknown
Orbital elements
Apogee altitude
27,568.475 km
Perigee altitude
203.414 km
Semi-major axis
20,264.081 km
Eccentricity
0.67521
Inclination
4.5735°
RAAN
35.184°
Arg. of periapsis
242.4911°
True anomaly
117.1594°
Mean anomaly
34.8649°
Eccentric anomaly
71.56672°
Mean motion
0.75241 °/min
Orbital period
478.46 mins
BSTAR
0.0010288
Loading maneuver chart data...
Computing Atmospheric mass density...
Loading historical data...
Loading historical data...
Loading historical data...
Loading historical data...
Loading historical data...
Loading historical data...
Loading historical data...
Other satellites on launch #49 in the year 2019 (2019-08-06 UTC)

Documentation

Showing up to 5 results
|